FLOCK 3P'-2 (43120 NORAD) Tracking and Keplerian Element Data

This shows tracking and keplerian element data for the satellite.

Feedback or suggestion? Click here.




ElementValue
Catalog43120
NameFLOCK 3P'-2
Epoch Orbit26159
Epoch Day269.40264611
Epoch Year2022
RAAN341.8871
Inclination97.3684
Eccentricity0.0009001
Argument of Perigee19.9213
Mean Anonmoly340.2376
Mean Motion15.27875339
Decay Rate6.996E-05
L11 43120U 18004K 22269.40264611 .00006996 00000+0 25953-3 0 9994
L22 43120 97.3684 341.8871 0009001 19.9213 340.2376 15.27875339261594

Live tracking and technical data element details for FLOCK 3P'-2 (NORAD 43120). FLOCK 3P'-2 can be tracked NOW for your location showing map with azimuth and elevation plus other details from your city location.

Track the satellite on the map from your city or location and see movement details for azimuth, elevation, latitude, longitude, range, height, and movement on the map or in text.







IsCatalogInMostPopularTable: catalog: 43120, numindb: 608
Update: records affected: 1



GetName: 43120 FLOCK 3P'-2

Hit Count: updated at: Thu, 29 Sep 2022 12:27:51 GMT